[[{"header":{"parameterUnit":"m.s-1","parameterCategory":1,"la1":30.2991,"la2":30.254,"lo1":-89.0895,"lo2":-89.0444,"dy":0.0017,"dx":0.0017,"nx":28,"ny":28,"refTime":"2025-11-20T03:00:00:Z","depth":0,"parameterNumber":2,"parameterNumberName":"U-component_of_WINDS"},"data":[0,0,0,0,0,0,0,0,0,0,0,0,0,0,0,0,0,0,0,0,0,0,0,0,0,0,0,0,0,0,0,0,0,0,0,0,0,0,0,0,0,0,0,0,0,0,0,0,0,0,0,0,0,0,0,0,0,0,-1.724,-1.724,0,-1.7262,-1.7262,-1.7262,-1.7217,-1.7215,-1.7214,-1.7212,-1.7237,-1.7239,-1.7241,0,0,0,0,0,0,0,0,0,0,0,0,0,-1.716,-1.7162,-1.724,-1.724,-1.724,-1.7262,-1.7262,-1.7263,-1.7217,-1.7215,-1.7213,-1.7212,-1.7236,-1.7238,-1.7241,0,0,0,0,0,0,0,0,0,0,0,0,0,-1.719,-1.7162,-1.724,-1.722,-1.7219,-1.7262,-1.7262,-1.7263,-1.7217,-1.7215,-1.7213,-1.7211,-1.7235,-1.7238,-1.7241,-1.7305,0,0,-1.725,-1.7252,0,0,0,0,0,0,0,0,-1.7188,-1.7193,-1.7223,-1.7221,-1.722,-1.7234,-1.7243,-1.7277,-1.7218,-1.7218,-1.7212,-1.721,-1.7238,-1.724,-1.725,-1.7306,-1.7307,-1.7251,-1.7253,-1.7254,-1.7255,0,0,0,0,0,0,0,-1.7186,-1.7192,-1.7248,-1.7223,-1.7221,-1.7211,-1.7213,-1.7249,-1.724,-1.7218,-1.7214,-1.7218,-1.7237,-1.7247,-1.725,-1.7307,-1.7251,-1.7253,-1.7255,-1.7256,-1.7419,-1.7421,0,0,0,0,0,0,-1.7186,-1.719,-1.7248,-1.7249,-1.7198,-1.7214,-1.7216,-1.7232,-1.724,-1.7239,-1.722,-1.7215,-1.7243,-1.7246,-1.725,-1.7326,-1.7254,-1.7257,-1.7258,-1.7416,-1.7419,-1.7422,0,0,0,0,0,0,-1.7185,-1.7192,-1.7247,-1.7219,-1.7225,-1.7218,-1.7236,-1.7234,-1.7244,-1.7241,-1.7239,-1.7231,-1.7241,-1.7246,-1.7292,-1.7326,-1.7258,-1.7261,-1.7413,-1.7417,-1.7421,-1.7477,0,0,0,0,0,0,-1.7183,-1.7192,-1.7215,-1.722,-1.7227,-1.7287,-1.7238,-1.7236,-1.7249,-1.7244,-1.7252,-1.7251,-1.724,-1.7288,-1.7295,-1.7329,-1.7263,-1.741,-1.7415,-1.7419,-1.7472,-1.7482,-1.7491,0,0,0,0,0,-1.718,-1.723,-1.7216,-1.7223,-1.7256,-1.7289,-1.7293,-1.7279,-1.7252,-1.7276,-1.7274,-1.7251,-1.7322,-1.7293,-1.73,-1.7336,-1.7408,-1.7414,-1.7419,-1.7468,-1.748,-1.7491,0,0,0,0,0,0,-1.7229,-1.723,-1.7215,-1.7268,-1.7279,-1.7281,-1.7311,-1.7292,-1.7311,-1.7306,-1.7288,-1.729,-1.734,-1.7343,-1.731,-1.7399,-1.736,-1.7368,-1.7395,-1.7407,-1.7416,-1.7413,-1.7266,0,0,0,0,0,-1.7246,-1.7273,-1.7272,-1.7319,-1.7326,-1.7318,-1.7332,-1.732,-1.7331,-1.7335,-1.7337,-1.7349,-1.7374,-1.7391,-1.7413,-1.7473,-1.7475,-1.7502,-1.7511,-1.7519,-1.7525,-1.7558,-1.757,-1.744,-1.744,-1.744,0,0,-1.7282,-1.7285,-1.7303,-1.7329,-1.7336,-1.7365,-1.7322,-1.7353,-1.7375,-1.734,-1.7383,-1.7385,-1.7398,-1.7451,-1.7474,-1.7455,-1.7562,-1.7526,-1.7532,-1.7534,-1.7565,-1.7577,-1.7588,-1.7444,-1.7443,-1.7443,0,0,-1.736,-1.7366,-1.7406,-1.7414,-1.7425,-1.742,-1.743,-1.7436,-1.7436,-1.7479,-1.7454,-1.748,-1.7523,-1.7533,-1.7544,-1.7629,-1.7609,-1.7638,-1.7686,-1.7719,-1.7729,-1.7738,-1.7768,-1.7779,-1.7644,-1.7644,-1.7644,0,-1.7403,-1.7444,-1.7428,-1.7462,-1.7475,-1.7446,-1.7486,-1.7495,-1.7514,-1.7524,-1.7502,-1.7557,-1.7563,-1.7618,-1.764,-1.7649,-1.7661,-1.7636,-1.7728,-1.7737,-1.7746,-1.7774,-1.7786,-1.7648,-1.7647,-1.7647,-1.7647,0,-1.7496,-1.7525,-1.7556,-1.7575,-1.7591,-1.7629,-1.762,-1.7639,-1.7626,-1.7624,-1.7669,-1.7676,-1.77,-1.7713,-1.7701,-1.7767,-1.7755,-1.7731,-1.7692,-1.7762,-1.7788,-1.7799,-1.7653,-1.7651,-1.765,-1.7649,0,0,-1.7604,-1.7615,-1.7626,-1.7635,-1.7647,-1.767,-1.7707,-1.773,-1.7747,-1.7762,-1.7792,-1.7831,-1.781,-1.7822,-1.7812,-1.784,-1.7908,-1.7813,-1.7813,-1.783,-1.7982,-1.7999,-1.8012,-1.7895,-1.7897,-1.7899,-1.7981,0,-1.7681,-1.7744,-1.7732,-1.7793,-1.7821,-1.7795,-1.7827,-1.7838,-1.7838,-1.7862,-1.7862,-1.7889,-1.7859,-1.7866,-1.7893,-1.7894,-1.7938,-1.7888,-1.7924,-1.7925,-1.792,-1.8026,-1.8044,-1.8121,-1.7991,-1.7993,-1.7995,0,-1.778,-1.7798,-1.7862,-1.7871,-1.7882,-1.7911,-1.7933,-1.7956,-1.7969,-1.7967,-1.7982,-1.7967,-1.8005,-1.7966,-1.8019,-1.7985,-1.7999,-1.8002,-1.8005,-1.8007,-1.7963,-1.803,-1.8145,-1.8157,-1.8011,-1.801,-1.8008,0,-1.7852,-1.7893,-1.7937,-1.7945,-1.7956,-1.7978,-1.7983,-1.7994,-1.801,-1.8029,-1.8039,-1.8063,-1.8076,-1.8096,-1.8088,-1.806,-1.8142,-1.8103,-1.8142,-1.8142,-1.8159,-1.8158,-1.8277,-1.817,-1.817,-1.817,-1.8169,0,-1.7939,-1.7979,-1.7969,-1.7996,-1.8041,-1.8028,-1.8073,-1.8076,-1.8087,-1.8114,-1.8094,-1.8121,-1.8109,-1.8136,-1.813,-1.8175,-1.8181,-1.8181,-1.8178,-1.8182,-1.8182,-1.819,-1.8184,-1.8173,-1.8172,-1.8171,-1.8171,0,-1.8026,-1.8021,-1.8067,-1.8075,-1.8078,-1.811,-1.8117,-1.8143,-1.8142,-1.8177,-1.8185,-1.8183,-1.8213,-1.8208,-1.8242,-1.8238,-1.8294,-1.8286,-1.8289,-1.8287,-1.8326,-1.8322,-1.8454,-1.8471,-1.8354,-1.8355,-1.8356,0,-1.8081,-1.8111,-1.8123,-1.814,-1.8147,-1.8175,-1.8191,-1.8181,-1.8198,-1.8217,-1.8241,-1.8269,-1.8291,-1.8341,-1.8343,-1.8369,-1.8361,-1.8406,-1.8365,-1.8368,-1.8361,-1.8359,-1.8362,-1.8413,-1.8414,-1.8415,-1.8416,0,-1.818,-1.8176,-1.82,-1.8223,-1.8243,-1.8261,-1.8277,-1.8292,-1.8284,-1.8305,-1.8336,-1.8353,-1.8388,-1.8416,-1.8441,-1.8448,-1.8431,-1.843,-1.844,-1.8443,-1.8444,-1.8444,-1.831,-1.8426,-1.8425,-1.8424,-1.8424,-1.8424,-1.8252,-1.8278,-1.8291,-1.8318,-1.8329,-1.8345,-1.837,-1.8373,-1.8398,-1.8425,-1.8418,-1.8453,-1.8467,-1.8499,-1.8509,-1.8537,-1.852,-1.8535,-1.8539,-1.8543,-1.8547,-1.844,-1.8541,-1.8541,-1.8541,-1.8541,-1.854,0,-1.8349,-1.8357,-1.8382,-1.8405,-1.8427,-1.841,-1.8428,-1.8447,-1.8478,-1.8493,-1.8516,-1.8552,-1.858,-1.8586,-1.8613,-1.8635,-1.8628,-1.8642,-1.864,-1.8642,-1.856,-1.8548,-1.8647,-1.8647,-1.8647,-1.8647,-1.8647,-1.8647,-1.8402,-1.8446,-1.8444,-1.8494,-1.8501,-1.8535,-1.8546,-1.8562,-1.8573,-1.8614,-1.8638,-1.8641,-1.8653,-1.8681,-1.8707,-1.8708,-1.8719,-1.8737,-1.8735,-1.8658,-1.8647,-1.8637,-1.8626,-1.8739,-1.8739,-1.8814,-1.8814,-1.8815]},{"header":{"parameterUnit":"m.s-1","parameterCategory":1,"la1":30.2991,"la2":30.254,"lo1":-89.0895,"lo2":-89.0444,"dy":0.0017,"dx":0.0017,"nx":28,"ny":28,"refTime":"2025-11-20T03:00:00:Z","depth":0,"parameterNumber":3,"parameterNumberName":"V-component_of_WINDS"},"data":[0,0,0,0,0,0,0,0,0,0,0,0,0,0,0,0,0,0,0,0,0,0,0,0,0,0,0,0,0,0,0,0,0,0,0,0,0,0,0,0,0,0,0,0,0,0,0,0,0,0,0,0,0,0,0,0,0,0,0.7176,0.7176,0,0.7203,0.7204,0.7204,0.7234,0.7234,0.7234,0.7235,0.7262,0.7263,0.7263,0,0,0,0,0,0,0,0,0,0,0,0,0,0.715,0.715,0.7176,0.7176,0.7177,0.7203,0.7204,0.7204,0.7233,0.7234,0.7234,0.7235,0.7262,0.7263,0.7263,0,0,0,0,0,0,0,0,0,0,0,0,0,0.7168,0.715,0.7176,0.7194,0.7196,0.7203,0.7204,0.7204,0.7233,0.7234,0.7235,0.7235,0.7262,0.7263,0.7263,0.7254,0,0,0.7265,0.7265,0,0,0,0,0,0,0,0,0.7167,0.7169,0.7191,0.7193,0.7195,0.7216,0.7205,0.7221,0.7233,0.7219,0.7235,0.7235,0.7246,0.7248,0.7252,0.7255,0.7256,0.7265,0.7265,0.7265,0.7265,0,0,0,0,0,0,0,0.7165,0.7168,0.7187,0.7192,0.7194,0.7202,0.7205,0.7208,0.7229,0.7221,0.7223,0.7226,0.7247,0.7251,0.7253,0.7257,0.7265,0.7265,0.7265,0.7266,0.7256,0.7256,0,0,0,0,0,0,0.7161,0.7166,0.7186,0.7188,0.7182,0.7202,0.7205,0.7209,0.7229,0.7233,0.7225,0.7227,0.725,0.7252,0.7254,0.7246,0.7265,0.7266,0.7266,0.7257,0.7256,0.7255,0,0,0,0,0,0,0.7161,0.7163,0.7185,0.7178,0.7181,0.7202,0.7205,0.7209,0.7213,0.7232,0.7236,0.7225,0.7251,0.7253,0.7254,0.7247,0.7266,0.7266,0.7257,0.7256,0.7256,0.7228,0,0,0,0,0,0,0.716,0.7162,0.7158,0.7177,0.7181,0.7184,0.7204,0.7209,0.7213,0.7216,0.7233,0.7237,0.7251,0.7253,0.7255,0.7248,0.7267,0.7258,0.7257,0.7256,0.723,0.7227,0.7224,0,0,0,0,0,0.7159,0.7149,0.7158,0.716,0.7177,0.7184,0.7186,0.7203,0.7213,0.7209,0.7223,0.7236,0.7248,0.7253,0.7255,0.7248,0.7259,0.7257,0.7256,0.7231,0.7227,0.7224,0,0,0,0,0,0,0.7128,0.7152,0.7162,0.7158,0.7169,0.7188,0.7185,0.7198,0.7206,0.7208,0.7229,0.7232,0.7231,0.724,0.7246,0.7242,0.7255,0.7254,0.7236,0.7232,0.7229,0.7227,0.7267,0,0,0,0,0,0.712,0.7124,0.7145,0.7139,0.7144,0.7164,0.7167,0.718,0.7191,0.7196,0.7209,0.722,0.7226,0.723,0.7236,0.7232,0.7237,0.7228,0.7225,0.7223,0.7222,0.7222,0.7219,0.7251,0.7251,0.7251,0,0,0.7105,0.7119,0.7119,0.7133,0.7143,0.7147,0.7167,0.7169,0.7172,0.7196,0.7198,0.7208,0.7222,0.7221,0.7221,0.7228,0.7214,0.7221,0.7219,0.7219,0.722,0.7217,0.7214,0.725,0.7251,0.7251,0,0,0.708,0.709,0.7087,0.7097,0.7112,0.7126,0.7125,0.7144,0.7152,0.7154,0.7173,0.7177,0.7187,0.7197,0.7203,0.7184,0.7198,0.7186,0.717,0.717,0.7167,0.7165,0.7159,0.7157,0.7185,0.7185,0.7185,0,0.7059,0.7065,0.7084,0.7086,0.7093,0.7115,0.7114,0.7122,0.7138,0.7143,0.7151,0.7165,0.7176,0.7178,0.7174,0.7178,0.7179,0.7184,0.7166,0.7164,0.7162,0.7157,0.7155,0.7183,0.7183,0.7184,0.7184,0,0.7039,0.7044,0.704,0.7056,0.7062,0.7062,0.7082,0.7086,0.7099,0.7111,0.7115,0.7129,0.714,0.7142,0.7153,0.7146,0.7151,0.7162,0.7176,0.7157,0.7153,0.7151,0.7181,0.7182,0.7182,0.7182,0,0,0.6993,0.7022,0.702,0.7029,0.7048,0.7052,0.7054,0.7066,0.7069,0.708,0.7083,0.7092,0.7104,0.7111,0.7124,0.7124,0.7111,0.7136,0.7137,0.7132,0.7105,0.7097,0.7094,0.712,0.712,0.7119,0.7104,0,0.6972,0.6976,0.6995,0.6995,0.7,0.7023,0.7025,0.7037,0.705,0.7056,0.7071,0.7077,0.7091,0.7096,0.7097,0.7112,0.7106,0.7113,0.7123,0.7123,0.7119,0.7092,0.7082,0.7067,0.7103,0.7102,0.7102,0,0.6946,0.6957,0.6957,0.6979,0.6982,0.6983,0.6996,0.7002,0.7017,0.7027,0.7036,0.7052,0.7056,0.707,0.7077,0.7082,0.7088,0.7096,0.7096,0.7097,0.7112,0.7093,0.7063,0.7061,0.71,0.71,0.71,0,0.6914,0.6929,0.6931,0.6938,0.6962,0.6963,0.6974,0.699,0.6996,0.7008,0.7013,0.7025,0.7031,0.7041,0.706,0.7067,0.7065,0.708,0.7074,0.7074,0.7072,0.7072,0.7043,0.7075,0.7075,0.7075,0.7075,0,0.6888,0.6887,0.6917,0.6919,0.6919,0.6942,0.6942,0.6955,0.6969,0.6974,0.6995,0.6999,0.7024,0.7032,0.7047,0.7052,0.7054,0.7063,0.7067,0.7061,0.706,0.7065,0.7066,0.7075,0.7075,0.7075,0.7075,0,0.6851,0.6871,0.6876,0.69,0.6906,0.6905,0.6926,0.6929,0.6944,0.695,0.6953,0.6977,0.6987,0.7007,0.7023,0.7033,0.7035,0.7041,0.7029,0.7032,0.7025,0.7026,0.6998,0.6996,0.7029,0.7029,0.7029,0,0.6833,0.6834,0.6858,0.6864,0.6873,0.6881,0.6889,0.6911,0.6918,0.6937,0.6938,0.6951,0.6961,0.6977,0.6996,0.7008,0.7016,0.7006,0.7018,0.7013,0.7017,0.7017,0.7018,0.7003,0.7002,0.7002,0.7001,0,0.68,0.681,0.682,0.6834,0.6842,0.6854,0.6867,0.687,0.6896,0.6903,0.6914,0.6923,0.694,0.6952,0.6968,0.6979,0.6995,0.6998,0.6997,0.6991,0.6985,0.6989,0.7022,0.6998,0.6998,0.6998,0.6999,0.6999,0.6773,0.6775,0.6793,0.6804,0.6816,0.6829,0.6833,0.685,0.6859,0.6875,0.6888,0.6899,0.6917,0.694,0.6951,0.696,0.6967,0.6966,0.6966,0.6965,0.6964,0.6983,0.6963,0.6963,0.6963,0.6963,0.6963,0,0.6741,0.6755,0.6764,0.6783,0.6791,0.6806,0.6822,0.6829,0.6838,0.6853,0.6864,0.6878,0.6891,0.6911,0.6926,0.693,0.6937,0.6933,0.6933,0.6935,0.6956,0.6955,0.6926,0.6926,0.6926,0.6926,0.6926,0.6926,0.6726,0.6731,0.6744,0.6756,0.677,0.6781,0.6789,0.68,0.6813,0.6828,0.6839,0.6853,0.6871,0.6887,0.69,0.6906,0.6911,0.6904,0.6912,0.693,0.6934,0.6937,0.6937,0.6904,0.6904,0.6891,0.6891,0.6891]}]]